| time (UTC) | temp F | wind direction | speed MPH | gust MPH | rain 1hr in | rain 24hr in | rain mn in | humidity % | barometer mb |
| 20260504024001 | 49 | 0.0 | 0.0 | 0.00 | 0.00 | 0.00 | 67 | 1014.8 | |
| 20260504023001 | 49 | 0.0 | 0.0 | 0.00 | 0.00 | 0.00 | 66 | 1014.7 | |
| 20260504022001 | 49 | 0.0 | 0.0 | 0.00 | 0.00 | 0.00 | 65 | 1014.8 | |
| 20260504021001 | 50 | 0.0 | 0.0 | 0.00 | 0.00 | 0.00 | 64 | 1014.8 | |
| 20260504015001 | 51 | 0.0 | 0.0 | 0.00 | 0.00 | 0.00 | 61 | 1015.0 | |
| 20260504014001 | 51 | 0.0 | 0.0 | 0.00 | 0.00 | 0.00 | 60 | 1015.0 | |
| 20260504013001 | 52 | 0.0 | 0.0 | 0.00 | 0.00 | 0.00 | 59 | 1015.0 | |
| 20260504012001 | 53 | 0.0 | 0.0 | 0.00 | 0.00 | 0.00 | 56 | 1014.9 | |
| 20260504011001 | 53 | 0.0 | 0.0 | 0.00 | 0.00 | 0.00 | 58 | 1014.9 | |
| 20260504010001 | 52 | 0.0 | 0.0 | 0.00 | 0.00 | 0.00 | 58 | 1014.9 | |
| 20260504005001 | 51 | 0.0 | 0.0 | 0.00 | 0.00 | 0.00 | 61 | 1015.0 | |
| 20260504004001 | 51 | 0.0 | 0.0 | 0.00 | 0.00 | 0.00 | 61 | 1015.0 | |
| 20260504003001 | 51 | 0.0 | 0.0 | 0.00 | 0.00 | 0.00 | 62 | 1015.0 | |
| 20260504002001 | 52 | 0.0 | 0.0 | 0.00 | 0.00 | 0.00 | 62 | 1015.1 | |
| 20260504001001 | 52 | 0.0 | 0.0 | 0.00 | 0.00 | 0.00 | 61 | 6.0 | |
| 20260504000001 | 52 | 0.0 | 0.0 | 0.00 | 0.00 | 0.00 | 60 | 1015.2 | |
| 20260503235001 | 53 | 0.0 | 0.0 | 0.00 | 0.00 | 0.00 | 58 | 267.3 | |
| 20260503234001 | 54 | 0.0 | 0.0 | 0.00 | 0.00 | 0.00 | 57 | 1015.3 | |
| 20260503233001 | 54 | 0.0 | 0.0 | 0.00 | 0.00 | 0.00 | 55 | 1015.3 | |
| 20260503232001 | 54 | 0.0 | 0.0 | 0.00 | 0.00 | 0.00 | 57 | 1015.4 | |
| 20260503230001 | 55 | 0.0 | 0.0 | 0.00 | 0.00 | 0.00 | 53 | 1015.5 | |
| 20260503225000 | 56 | 0.0 | 0.0 | 0.00 | 0.00 | 0.00 | 52 | 1015.5 | |
| 20260503224000 | 57 | 0.0 | 0.0 | 0.00 | 0.00 | 0.00 | 50 | 1015.5 | |
| 20260503223000 | 58 | 0.0 | 0.0 | 0.00 | 0.00 | 0.00 | 49 | 1015.5 | |
| 20260503222000 | 58 | 0.0 | 0.0 | 0.00 | 0.00 | 0.00 | 49 | 1015.5 | |
| 20260503221000 | 58 | 0.0 | 0.0 | 0.00 | 0.00 | 0.00 | 49 | 1015.6 | |
| 20260503220000 | 59 | 0.0 | 0.0 | 0.00 | 0.00 | 0.00 | 48 | 1015.6 | |
| 20260503215000 | 59 | 0.0 | 0.0 | 0.00 | 0.00 | 0.00 | 47 | 1015.6 | |
| 20260503213000 | 60 | 0.0 | 0.0 | 0.00 | 0.00 | 0.00 | 46 | 1015.5 | |
| 20260503212000 | 61 | 0.0 | 0.0 | 0.00 | 0.00 | 0.00 | 45 | 1015.5 | |
| 20260503211000 | 61 | 0.0 | 0.0 | 0.00 | 0.00 | 0.00 | 45 | 1015.5 | |
| 20260503210000 | 8 | 0.0 | 0.0 | 0.00 | 0.00 | 0.00 | 45 | 16.7 | |
| 20260503204001 | 62 | 0.0 | 0.0 | 0.00 | 0.00 | 0.00 | 47 | 1015.5 | |
| 20260503203001 | 61 | 0.0 | 0.0 | 0.00 | 0.00 | 0.00 | 48 | 1015.5 | |
| 20260503202001 | 60 | 0.0 | 0.0 | 0.00 | 0.00 | 0.00 | 52 | 1015.4 | |
| 20260503201001 | 61 | 0.0 | 0.0 | 0.00 | 0.00 | 0.00 | 52 | 1015.5 | |
| 20260503200001 | 61 | 0.0 | 0.0 | 0.00 | 0.00 | 0.00 | 51 | 1015.4 | |
| 20260503195001 | 62 | 0.0 | 0.0 | 0.00 | 0.00 | 0.00 | 50 | 1015.3 | |
| 20260503194001 | 63 | 0.0 | 0.0 | 0.00 | 0.00 | 0.00 | 49 | 1015.4 | |
| 20260503193001 | 63 | 0.0 | 0.0 | 0.00 | 0.00 | 0.00 | 49 | 1015.4 | |
| 20260503192001 | 64 | 0.0 | 0.0 | 0.00 | 0.00 | 0.00 | 47 | 1015.4 | |
| 20260503191001 | 64 | 0.0 | 0.0 | 0.00 | 0.00 | 0.00 | 48 | 1015.4 | |
| 20260503190001 | 64 | 0.0 | 0.0 | 0.00 | 0.00 | 0.00 | 47 | 1015.3 | |
| 20260503185001 | 66 | 0.0 | 0.0 | 0.00 | 0.00 | 0.00 | 45 | 1015.2 | |
| 20260503184001 | 66 | 0.0 | 0.0 | 0.00 | 0.00 | 0.00 | 44 | 1015.1 | |
| 20260503183001 | 67 | 0.0 | 0.0 | 0.00 | 0.00 | 0.00 | 43 | 1015.0 | |
| 20260503182001 | 68 | 0.0 | 0.0 | 0.00 | 0.00 | 0.00 | 42 | 1014.9 | |
| 20260503181001 | 69 | 0.0 | 0.0 | 0.00 | 0.00 | 0.00 | 42 | 1014.9 | |
| 20260503180001 | 70 | 0.0 | 0.0 | 0.00 | 0.00 | 0.00 | 41 | 1014.7 | |
| 20260503175001 | 70 | 0.0 | 0.0 | 0.00 | 0.00 | 0.00 | 40 | 1014.7 | |
| 20260503174001 | 71 | 0.0 | 0.0 | 0.00 | 0.00 | 0.00 | 39 | 1014.7 | |
| 20260503173001 | 72 | 0.0 | 0.0 | 0.00 | 0.00 | 0.00 | 39 | 1014.6 | |
| 20260503172001 | 72 | 0.0 | 0.0 | 0.00 | 0.00 | 0.00 | 39 | 1014.6 | |
| 20260503171001 | 73 | 0.0 | 0.0 | 0.00 | 0.00 | 0.00 | 38 | 1014.6 | |
| 20260503151000 | 76 | 0.0 | 0.0 | 0.00 | 0.00 | 0.00 | 35 | 1015.1 | |
| 20260503131001 | 77 | 0.0 | 0.0 | 0.00 | 0.00 | 0.00 | 33 | 1016.4 | |
| 20260503081000 | 78 | 0.0 | 0.0 | 0.00 | 0.00 | 0.00 | 37 | 1018.9 | |
| 20260503072000 | 70 | 0.0 | 0.0 | 0.00 | 0.00 | 0.00 | 43 | 1019.0 | |
| 20260503071000 | 68 | 0.0 | 0.0 | 0.00 | 0.00 | 0.00 | 44 | 1019.0 | |
| 20260503055001 | 67 | 0.0 | 0.0 | 0.00 | 0.00 | 0.00 | 44 | 1019.0 | |
| 20260503054001 | 64 | 0.0 | 0.0 | 0.00 | 0.00 | 0.00 | 47 | 1019.0 | |
| 20260503053001 | 64 | 0.0 | 0.0 | 0.00 | 0.00 | 0.00 | 46 | 1018.9 | |
| 20260503052001 | 63 | 0.0 | 0.0 | 0.00 | 0.00 | 0.00 | 48 | 1019.0 | |
| 20260503051001 | 8 | 0.0 | 0.0 | 0.00 | 0.00 | 0.00 | 49 | 6.0 | |
| 20260503050001 | 61 | 0.0 | 0.0 | 0.00 | 0.00 | 0.00 | 49 | 1018.9 | |
| 20260503045001 | 58 | 0.0 | 0.0 | 0.00 | 0.00 | 0.00 | 54 | 1019.0 | |
| 20260503044001 | 59 | 0.0 | 0.0 | 0.00 | 0.00 | 0.00 | 54 | 1018.9 | |
| 20260503043001 | 56 | 0.0 | 0.0 | 0.00 | 0.00 | 0.00 | 57 | 1018.9 | |
| 20260503042001 | 54 | 0.0 | 0.0 | 0.00 | 0.00 | 0.00 | 63 | 1018.7 | |
| 20260503041001 | 47 | 0.0 | 0.0 | 0.00 | 0.00 | 0.00 | 78 | 1018.7 | |
| 20260503040001 | 45 | 0.0 | 0.0 | 0.00 | 0.00 | 0.00 | 80 | 1018.7 | |
| 20260503035001 | 44 | 0.0 | 0.0 | 0.00 | 0.00 | 0.00 | 81 | 1018.7 | |
| 20260503034001 | 44 | 0.0 | 0.0 | 0.00 | 0.00 | 0.00 | 80 | 1018.7 | |
| 20260503033000 | 45 | 0.0 | 0.0 | 0.00 | 0.00 | 0.00 | 79 | 1018.5 | |
| 20260503032000 | 44 | 0.0 | 0.0 | 0.00 | 0.00 | 0.00 | 81 | 1018.5 | |
| 20260503031000 | 44 | 0.0 | 0.0 | 0.00 | 0.00 | 0.00 | 82 | 1018.5 | |
| 20260503030000 | 44 | 0.0 | 0.0 | 0.00 | 0.00 | 0.00 | 82 | 1018.5 | |
| 20260503025000 | 44 | 0.0 | 0.0 | 0.00 | 0.00 | 0.00 | 83 | 1018.5 |